This demonstration page uses our WeatherBlox Daily Observations layout. Learn more.

Left ArrowRight Arrow

Hourly Observations for June 18, 2020

Temp ( °F °C ) Dew Point ( °F °C ) Humidity (%) Winds ( mph kmh ) Pressure ( in mb ) Visibility ( mi km ) Precip ( " mm )
12:53 am 00:53 Clear 76 24.4 56 13.3 50 50 SE 10 17 29.78 1009 10 16 0.00 0.00
1:53 am 01:53 Clear 74 23.3 57 13.9 56 56 SSE 9 15 29.78 1008 10 16 0.00 0.00
2:53 am 02:53 Clear 72 22.2 58 14.4 61 61 ESE 8 13 29.76 1008 10 16 0.00 0.00
3:53 am 03:53 Clear 71 21.7 57 13.9 61 61 SE 6 9 29.73 1007 10 16 0.00 0.00
4:53 am 04:53 Clear 72 22.2 55 12.8 55 55 ESE 12 19 29.73 1007 10 16 0.00 0.00
5:53 am 05:53 Clear 70 21.1 55 12.8 59 59 SE 10 17 29.75 1008 10 16 0.00 0.00
6:53 am 06:53 Sunny 70 21.1 56 13.3 61 61 SE 10 17 29.77 1008 10 16 0.00 0.00
7:53 am 07:53 Sunny 72 22.2 57 13.9 59 59 SE 10 17 29.77 1008 10 16 0.00 0.00
8:53 am 08:53 Sunny 74 23.3 58 14.4 57 57 SSE 10 17 29.78 1008 10 16 0.00 0.00
9:53 am 09:53 Sunny 81 27.2 57 13.9 44 44 SSE 8 13 29.77 1008 10 16 0.00 0.00
10:53 am 10:53 Sunny 88 31.1 49 9.4 26 26 W 10 17 29.75 1008 10 16 0.00 0.00
11:53 am 11:53 Sunny 94 34.4 47 8.3 20 20 W 8 13 29.74 1007 10 16 0.00 0.00
12:53 pm 12:53 Sunny 98 36.7 41 5 14 14 NNW 8 13 29.72 1007 10 16 0.00 0.00
1:53 pm 13:53 Sunny 101 38.3 35 1.7 10 10 NNW 10 17 29.70 1006 10 16 0.00 0.00
2:53 pm 14:53 Sunny 102 38.9 34 1.1 9 9 SW 15 24 29.68 1005 10 16 0.00 0.00
3:53 pm 15:53 Sunny 103 39.4 35 1.7 9 9 WSW 8 13 29.67 1005 10 16 0.00 0.00
4:53 pm 16:53 Sunny 104 40 34 1.1 9 9 WNW 14 22 29.64 1004 10 16 0.00 0.00
5:53 pm 17:53 Sunny 102 38.9 35 1.7 10 10 WSW 12 19 29.63 1004 10 16 0.00 0.00
6:53 pm 18:53 Sunny 102 38.9 34 1.1 9 9 VRB 6 9 29.62 1003 10 16 0.00 0.00
7:53 pm 19:53 Sunny 100 37.8 33 0.6 10 10 WSW 18 30 29.62 1003 10 16 0.00 0.00
8:53 pm 20:53 Sunny 95 35 33 0.6 11 11 W 8 13 29.63 1003 10 16 0.00 0.00
9:53 pm 21:53 Clear 87 30.6 35 1.7 16 16 W 10 17 29.64 1004 10 16 0.00 0.00
10:53 pm 22:53 Clear 86 30 64 17.8 48 48 SSE 20 31 29.68 1005 10 16 0.00 0.00
11:53 pm 23:53 Clear 82 27.8 66 18.9 58 58 SSE 22 35 29.72 1006 10 16 0.00 0.00

Powered by AerisWeather